Weather in Novyj Gorodok

Russia / Kemerovo Oblast     54°18′12″N   86°17′36″E
temp.,
°C
wind,
m/s
gust,
m/s
humid.,
%
clouds,
%
prec.,
mm/h
press.,
hPa
HPBL,
m
4 march, thu
thu401:00−11sw498895 0.0 1026317
04:00−13s499098 0.0 1027232
07:00−14s488892 0.0 1027177
10:00−10s51282100 0.0 1026789
13:00−6ssw71375100 0.0 1024941
16:00−6ssw61180100 0.0 1023753
19:00−7ssw61281100 0.0 1021514
22:00−5ssw61479100 0.0 1021532
5 march, fri
fri501:00−6ssw6157597 0.0 1020469
04:00−7s51278100 0.0 1018260
07:00−8s4108098 0.0 1016167
10:00−5ssw51279100 0.0 1015454
13:00−3ssw81483100 0.3 1015973
16:00−2sw9168498 0.3 10161265
19:00−3wsw8167891 0.4 10201003
22:00−5sw71681100 0.0 1021915
6 march, sat
sat601:00−5sw61681100 0.0 10211042
04:00−5sw81888100 0.3 10211237
07:00−5sw81787100 0.6 1021975
10:00−5sw101885100 0.2 1020974
13:00−3sw101876100 0.3 10201061
16:00−2sw91773100 0.0 10181130
19:00−4sw61675100 0.0 1017899
22:00−5sw51582100 0.0 1017787
7 march, sun
sun701:00−5sw51486100 0.0 1017793
04:00−4sw61587100 0.0 1016825
07:00−4sw61389100 0.1 1018656
10:00−4sw51187100 0.1 1018570
13:00−2sw4886100 0.1 1019711
16:00−1ssw5986100 0.1 1018772
19:00−3ssw51286100 0.1 1017443
22:00−3ssw61580100 0.0 1016534
8 march, mon
mon801:00−4sw61580100 0.0 1016450
04:00−4ssw71479100 0.0 1015418
07:00−4sw71479100 0.0 1016432
10:00−2ssw71480100 0.0 1016534
13:000sw61381100 0.0 1016699
16:000sw51185100 0.0 1016725
19:00−2sw4985100 0.0 1017284
22:00−3sw41093100 0.1 1018407